カタログに戻る

SL-12 R/B

AUX MOTOR

運用中HEO
NORAD 19755·ROCKET BODY·🇷🇺 Russia

打ち上げ Jan 10, 1989 から Baikonur Cosmodrome

Loading…

次のパス (今後24時間)

TLE

最新Source: Space-Track

元期: Sep 13, 2026, 13:33 UTC

1 19755U 89001G   26256.56476707 -.00000075  00000-0 -28174-3 0  9997
2 19755  65.2444 339.7458 5557952  72.4819 338.8512  4.25604415584875

AllMySatでSL-12 R/Bをリアルタイム追跡

Download on the App Store